Tracking 25612 objects as of 19-May-2022
HD Live streaming from Space Station
objects crossing your sky now

ARIANE 5 R/B

Track ARIANE 5 R/B now!


NORAD ID: 27462
Int'l Code: 2002-035C
Perigee: 676.8 km
Apogee: 36,124.7 km
Inclination: 5.4 °
Period: 646.7 minutes
Semi major axis: 24771 km
RCS: 26.2715 m2 (large)
Launch date: July 5, 2002
Source: France (FR)
Launch site: FRENCH GUIANA (FRGUI)

Note: This is a ROCKET BODY
aabbcc
Your satellite tracking list
Your tracking list is empty




NASA's NSSDC Master Catalog

Two Line Element Set (TLE):
1 27462U 02035C   22138.69298803 -.00000122  00000-0 -57761-3 0  9998
2 27462   5.3987 296.9455 7154896  60.3849   7.6153  2.22673110161728
Source of the keplerian elements: AFSPC